Time,TemperatureF,DewpointF,PressureIn,WindDirection,WindDirectionDegrees,WindSpeedMPH,WindSpeedGustMPH,Humidity,HourlyPrecipIn,Conditions,Clouds,dailyrainin,SolarRadiationWatts/m^2,SoftwareType,DateUTC
2013-09-12 00:03:00,73.0,71.0,-100.00,SW,235,0.0,0.0,93,0.00,,,0.00,0.000000,,2013-09-12 05:03:00,
2013-09-12 00:43:00,72.0,70.0,-100.00,SW,228,0.0,0.0,95,0.00,,,0.00,0.000000,,2013-09-12 05:43:00,
2013-09-12 00:53:00,72.0,70.0,-100.00,SW,228,0.0,0.0,95,0.00,,,0.00,0.000000,,2013-09-12 05:53:00,
2013-09-12 01:01:00,72.0,70.0,-100.00,SW,228,0.0,0.0,95,0.00,,,0.00,0.000000,,2013-09-12 06:01:00,
2013-09-12 01:42:00,71.0,70.0,-100.00,WSW,251,0.0,0.0,97,0.00,,,0.00,0.000000,,2013-09-12 06:42:00,
2013-09-12 01:52:00,71.0,70.0,-100.00,WSW,251,0.0,0.0,97,0.00,,,0.00,0.000000,,2013-09-12 06:52:00,
2013-09-12 02:02:00,71.0,70.0,-100.00,WSW,251,0.0,0.0,97,0.00,,,0.00,0.000000,,2013-09-12 07:02:00,
2013-09-12 02:44:00,71.0,70.0,-100.00,North,1,0.0,0.0,98,0.00,,,0.00,0.000000,,2013-09-12 07:44:00,
2013-09-12 02:52:00,71.0,70.0,-100.00,North,1,0.0,0.0,98,0.00,,,0.00,0.000000,,2013-09-12 07:52:00,
2013-09-12 03:02:00,71.0,70.0,-100.00,North,1,0.0,0.0,98,0.00,,,0.00,0.000000,,2013-09-12 08:02:00,
2013-09-12 03:42:00,71.0,71.0,-100.00,North,351,0.0,0.0,99,0.00,,,0.00,0.000000,,2013-09-12 08:42:00,
2013-09-12 03:52:00,71.0,71.0,-100.00,North,351,0.0,0.0,99,0.00,,,0.00,0.000000,,2013-09-12 08:52:00,
2013-09-12 04:02:00,71.0,71.0,-100.00,North,351,0.0,0.0,99,0.00,,,0.00,0.000000,,2013-09-12 09:02:00,
2013-09-12 04:43:00,70.0,70.0,-100.00,North,9,0.0,0.0,100,0.00,,,0.00,0.000000,,2013-09-12 09:43:00,
2013-09-12 04:53:00,70.0,70.0,-100.00,North,9,0.0,0.0,100,0.00,,,0.00,0.000000,,2013-09-12 09:53:00,
2013-09-12 05:03:00,70.0,70.0,-100.00,North,9,0.0,0.0,100,0.00,,,0.00,0.000000,,2013-09-12 10:03:00,
2013-09-12 05:43:00,70.0,70.0,-100.00,ENE,72,0.0,0.0,100,0.00,,,0.00,0.000000,,2013-09-12 10:43:00,
2013-09-12 05:53:00,70.0,70.0,-100.00,ENE,72,0.0,0.0,100,0.00,,,0.00,0.000000,,2013-09-12 10:53:00,
2013-09-12 06:03:00,70.0,70.0,-100.00,ENE,72,0.0,0.0,100,0.00,,,0.00,0.000000,,2013-09-12 11:03:00,
2013-09-12 06:42:00,70.0,70.0,-100.00,WNW,287,0.0,0.0,100,0.00,,,0.00,0.000000,,2013-09-12 11:42:00,
2013-09-12 06:52:00,70.0,70.0,-100.00,WNW,287,0.0,0.0,100,0.00,,,0.00,0.000000,,2013-09-12 11:52:00,
2013-09-12 07:01:00,70.0,70.0,-100.00,WNW,287,0.0,0.0,100,0.00,,,0.00,0.000000,,2013-09-12 12:01:00,
2013-09-12 07:42:00,70.0,70.0,-100.00,NNE,30,0.0,0.0,100,0.00,,,0.00,5.000000,,2013-09-12 12:42:00,
2013-09-12 07:52:00,70.0,70.0,-100.00,NNE,30,0.0,0.0,100,0.00,,,0.00,5.000000,,2013-09-12 12:52:00,
2013-09-12 08:02:00,70.0,70.0,-100.00,NNE,30,0.0,0.0,100,0.00,,,0.00,5.000000,,2013-09-12 13:02:00,
2013-09-12 08:42:00,77.0,74.0,-100.00,NNE,21,1.0,3.0,91,0.00,,,0.00,110.000000,,2013-09-12 13:42:00,
2013-09-12 08:52:00,77.0,74.0,-100.00,NNE,21,1.0,3.0,91,0.00,,,0.00,110.000000,,2013-09-12 13:52:00,
2013-09-12 09:02:00,77.0,74.0,-100.00,NNE,21,1.0,3.0,91,0.00,,,0.00,110.000000,,2013-09-12 14:02:00,
2013-09-12 09:42:00,82.0,75.0,-100.00,NE,40,3.0,5.0,80,0.00,,,0.00,269.000000,,2013-09-12 14:42:00,
2013-09-12 09:52:00,82.0,75.0,-100.00,NE,40,3.0,5.0,80,0.00,,,0.00,269.000000,,2013-09-12 14:52:00,
2013-09-12 10:02:00,82.0,75.0,-100.00,NE,40,3.0,5.0,80,0.00,,,0.00,269.000000,,2013-09-12 15:02:00,
2013-09-12 10:44:00,86.0,74.0,-100.00,ENE,71,4.0,7.0,68,0.00,,,0.00,436.000000,,2013-09-12 15:44:00,
2013-09-12 10:54:00,86.0,74.0,-100.00,ENE,71,4.0,7.0,68,0.00,,,0.00,436.000000,,2013-09-12 15:54:00,
2013-09-12 11:03:00,86.0,74.0,-100.00,ENE,71,4.0,7.0,68,0.00,,,0.00,436.000000,,2013-09-12 16:03:00,
2013-09-12 11:43:00,88.0,71.0,-100.00,East,97,4.0,9.0,58,0.00,,,0.00,580.000000,,2013-09-12 16:43:00,
2013-09-12 11:53:00,88.0,71.0,-100.00,East,97,4.0,9.0,58,0.00,,,0.00,580.000000,,2013-09-12 16:53:00,
2013-09-12 12:03:00,88.0,71.0,-100.00,East,97,4.0,9.0,58,0.00,,,0.00,580.000000,,2013-09-12 17:03:00,
2013-09-12 12:43:00,90.0,70.0,-100.00,NE,35,3.0,10.0,52,0.00,,,0.00,622.000000,,2013-09-12 17:43:00,
2013-09-12 12:54:00,90.0,70.0,-100.00,NE,35,3.0,10.0,52,0.00,,,0.00,622.000000,,2013-09-12 17:54:00,
2013-09-12 13:02:00,90.0,70.0,-100.00,NE,35,3.0,10.0,52,0.00,,,0.00,622.000000,,2013-09-12 18:02:00,
2013-09-12 13:42:00,92.0,69.0,-100.00,ENE,64,3.0,8.0,48,0.00,,,0.00,627.000000,,2013-09-12 18:42:00,
2013-09-12 13:52:00,92.0,69.0,-100.00,ENE,64,3.0,8.0,48,0.00,,,0.00,627.000000,,2013-09-12 18:52:00,
2013-09-12 14:02:00,92.0,69.0,-100.00,ENE,64,3.0,8.0,48,0.00,,,0.00,627.000000,,2013-09-12 19:02:00,
2013-09-12 14:42:00,92.0,68.0,-100.00,East,82,3.0,9.0,45,0.00,,,0.00,649.000000,,2013-09-12 19:42:00,
2013-09-12 14:52:00,92.0,68.0,-100.00,East,82,3.0,9.0,45,0.00,,,0.00,649.000000,,2013-09-12 19:52:00,
2013-09-12 15:02:00,92.0,68.0,-100.00,East,82,3.0,9.0,45,0.00,,,0.00,649.000000,,2013-09-12 20:02:00,
2013-09-12 15:42:00,92.0,66.0,-100.00,ENE,74,1.0,8.0,42,0.00,,,0.00,595.000000,,2013-09-12 20:42:00,
2013-09-12 15:52:00,92.0,66.0,-100.00,ENE,74,1.0,8.0,42,0.00,,,0.00,595.000000,,2013-09-12 20:52:00,
2013-09-12 16:02:00,92.0,66.0,-100.00,ENE,74,1.0,8.0,42,0.00,,,0.00,595.000000,,2013-09-12 21:02:00,
2013-09-12 16:43:00,94.0,66.0,-100.00,NE,45,2.0,7.0,40,0.00,,,0.00,547.000000,,2013-09-12 21:43:00,
2013-09-12 16:54:00,94.0,66.0,-100.00,NE,45,2.0,7.0,40,0.00,,,0.00,547.000000,,2013-09-12 21:54:00,
2013-09-12 17:04:00,94.0,66.0,-100.00,NE,45,2.0,7.0,40,0.00,,,0.00,547.000000,,2013-09-12 22:04:00,
2013-09-12 17:43:00,92.0,66.0,-100.00,East,92,2.0,6.0,42,0.00,,,0.00,397.000000,,2013-09-12 22:43:00,
2013-09-12 17:54:00,92.0,66.0,-100.00,East,92,2.0,6.0,42,0.00,,,0.00,397.000000,,2013-09-12 22:54:00,
2013-09-12 18:04:00,92.0,66.0,-100.00,East,92,2.0,6.0,42,0.00,,,0.00,397.000000,,2013-09-12 23:04:00,
2013-09-12 18:43:00,86.0,68.0,-100.00,SW,235,0.0,4.0,55,0.00,,,0.00,121.000000,,2013-09-12 23:43:00,
2013-09-12 18:53:00,86.0,68.0,-100.00,SW,235,0.0,4.0,55,0.00,,,0.00,121.000000,,2013-09-12 23:53:00,
2013-09-12 19:01:00,86.0,68.0,-100.00,SW,235,0.0,4.0,55,0.00,,,0.00,121.000000,,2013-09-13 00:01:00,
2013-09-12 19:52:00,80.0,70.0,-100.00,SW,227,0.0,0.0,72,0.00,,,0.00,16.000000,,2013-09-13 00:52:00,
2013-09-12 20:01:00,80.0,70.0,-100.00,SW,227,0.0,0.0,72,0.00,,,0.00,16.000000,,2013-09-13 01:01:00,
2013-09-12 20:42:00,76.0,70.0,-100.00,SW,224,0.0,0.0,82,0.00,,,0.00,1.000000,,2013-09-13 01:42:00,
2013-09-12 20:53:00,76.0,70.0,-100.00,SW,224,0.0,0.0,82,0.00,,,0.00,1.000000,,2013-09-13 01:53:00,
2013-09-12 21:02:00,76.0,70.0,-100.00,SW,224,0.0,0.0,82,0.00,,,0.00,1.000000,,2013-09-13 02:02:00,
2013-09-12 21:43:00,74.0,70.0,-100.00,SW,225,0.0,0.0,86,0.00,,,0.00,0.000000,,2013-09-13 02:43:00,
2013-09-12 21:53:00,74.0,70.0,-100.00,SW,225,0.0,0.0,86,0.00,,,0.00,0.000000,,2013-09-13 02:53:00,
2013-09-12 22:02:00,74.0,70.0,-100.00,SW,225,0.0,0.0,86,0.00,,,0.00,0.000000,,2013-09-13 03:02:00,
2013-09-12 22:45:00,72.0,68.0,-100.00,SSW,202,0.0,2.0,88,0.00,,,0.00,0.000000,,2013-09-13 03:45:00,
2013-09-12 22:55:00,72.0,68.0,-100.00,SSW,202,0.0,2.0,88,0.00,,,0.00,0.000000,,2013-09-13 03:55:00,
2013-09-12 23:04:00,72.0,68.0,-100.00,SSW,202,0.0,2.0,88,0.00,,,0.00,0.000000,,2013-09-13 04:04:00,
2013-09-12 23:44:00,72.0,68.0,-100.00,SW,227,0.0,3.0,88,0.00,,,0.00,0.000000,,2013-09-13 04:44:00,
2013-09-12 23:54:00,72.0,68.0,-100.00,SW,227,0.0,3.0,88,0.00,,,0.00,0.000000,,2013-09-13 04:54:00,